Location: Seattle
(47.6064°N, 122.3308°W)
Time: 02:49:20
(UTC-08:00)

A-11 Canister half - Pass Details

Date: 26 November 2020
Orbit: 1524 x 1684 km, 47.3° (Epoch: 21 January)

Event Time Altitude Azimuth Distance (km) Brightness Sun altitude
Rises 05:42:20 0° 209° (SSW) 4,926 11.5 -17.8°
Reaches altitude 10° 05:45:47 10° 202° (SSW) 3,939 11.0 -17.2°
Maximum altitude 05:54:48 39° 139° (SE) 2,342 10.4 -15.7°
Drops below altitude 10° 06:03:41 10° 76° (ENE) 3,884 12.1 -14.3°
Sets 06:07:03 0° 69° (ENE) 4,852 12.5 -13.8°
